Regional Weather Roundup
Issued by NWS

Home | Current Version | Previous Version | Text Only | Print | Product List | Glossary Off
Versions: 1 2 3 4 5 6 7 8 9 10 11 12 13 14 15 16 17 18 19 20 21 22 23 24 25 26 27 28 29 30 31 32 33 34 35 36 37 38 39 40 41 42 43 44 45 46 47 48 49 50

748
ASUS43 KMPX 262301
RWRMN
WEATHER ROUNDUP FOR MINNESOTA
NATIONAL WEATHER SERVICE TWIN CITIES/CHANHASSEN MN
600 PM CDT SAT MAY 26 2018


NOTE: "FAIR" INDICATES FEW OR NO CLOUDS BELOW 12,000 FEET WITH NO
SIGNIFICANT WEATHER AND/OR OBSTRUCTIONS TO VISIBILITY. N/A MEANS
CURRENT SKY AND/OR WEATHER CONDITIONS ARE NOT AVAILABLE.

MNZ060>063-068>070-270000-
   Twin Cities Metro

CITY           SKY/WX    TMP DP  RH WIND       PRES   REMARKS
TWIN CITIES    FAIR      93  55  27 SW10      29.69S HX  91
ST PAUL        FAIR      92  57  30 W9        29.68S HX  90
CRYSTAL        FAIR      93  48  21 NW12      29.67S
BLAINE         MOSUNNY   93  48  21 W15       29.68F HX  90
LAKEVILLE      FAIR      91  55  29 W8        29.70S
EDEN PRAIRIE   FAIR      92  58  31 W3        29.68F HX  91
SOUTH ST PAUL  FAIR      92  53  27 W8        29.69S
LAKE ELMO      FAIR      90  55  31 SW13      29.70S
$$
MNZ001>005-007-008-013>017-022>024-027-028-270000-
   Northwest Minnesota

CITY           SKY/WX    TMP DP  RH WIND       PRES   REMARKS
BEMIDJI        FAIR      85  54  35 W13G18    29.70S
HALLOCK        FAIR      84  57  39 N9        29.67S
ROSEAU         FAIR      82  61  47 NW6       29.69S
WARROAD        FAIR      82  63  51 W8        29.69S
THIEF RVR FALL FAIR      86  55  34 NW16      29.69S
CROOKSTON      FAIR      90  52  27 NW18      29.67S
FOSSTON        FAIR      88  48  25 W10G20    29.70S
DETROIT LAKES  FAIR      90  43  19 W10       29.72S
MOORHEAD       FAIR      93  45  18 W8        29.68S
PARK RAPIDS    FAIR      90  43  19 W18G29    29.70S
MAHNOMEN       FAIR      89  47  23 NW14      29.70R
$$
MNZ006-009>011-018-025>026-270000-
   North Central Minnesota

CITY           SKY/WX    TMP DP  RH WIND       PRES   REMARKS
BAUDETTE         N/A    N/A N/A N/A MISG      29.68S
FLAG ISLAND    PTSUNNY   70  59  68 CALM      29.68R
INTL FALLS     FAIR      81  57  43 NW9       29.68R
WASKISH        FAIR      81  63  54 CALM      29.69S
BIG FORK       FAIR      82  55  39 W10G16    29.70R
LONGVILLE      FAIR      84  50  30 NW7       29.70S
GRAND RAPIDS   FAIR      83  56  39 NW15      29.72R
ORR            FAIR      79  57  47 NW6       29.66S
COOK           PTSUNNY   81  57  44 W5        29.69S
WALKER         FAIR      84  52  33 NW13      29.70S
$$
MNZ012-019>021-037-270000-
   Northeast Minnesota

CITY           SKY/WX    TMP DP  RH WIND       PRES   REMARKS
DULUTH         FAIR      88  49  25 NW15      29.68R
ELY            FAIR      81  55  41 NW10      29.69R
HIBBING        FAIR      81  56  42 W8        29.69R
EVELETH        FAIR      83  55  37 NW10G16   29.70R
DULUTH HARBOR  PTSUNNY   50  46  87 NE12      29.70R
TWO HARBORS    FAIR      64  54  68 E8        29.67R
SILVER BAY     PTSUNNY   61  55  82 NE7       29.68R
GRAND MARAIS     N/A     43  41  93 NE8       29.70R
G MARAIS ARPRT LGT RAIN  66  59  77 N3        29.73S
$$
MNZ029>031-032-039>041-046>048-054>057-064-270000-
   West Central Minnesota

CITY           SKY/WX    TMP DP  RH WIND       PRES   REMARKS
FERGUS FALLS   FAIR      91  48  22 N10G21    29.64S
MORRIS         SUNNY     95  45  17 NW9       29.70S HX  91
ALEXANDRIA     FAIR      93  49  22 NW9       29.73S HX  90
ELBOW LAKE     FAIR      90  50  25 NW8       29.71S
WADENA         FAIR      88  52  29 NW10G18   29.71S
GLENWOOD       FAIR      91  46  21 W10       29.73S
APPLETON       SUNNY     93  43  17 W8G16     29.70F
BENSON         SUNNY     93  46  20 NW13G20   29.72R
ORTONVILLE     SUNNY     91  48  22 W6        29.72S
MADISON        SUNNY     93  46  20 NW12      29.72S
WILLMAR          N/A     93  48  21 N7        29.73S HX  90
$$
MNZ033>034-036-042>043-049>051-058-059-270000-
   Central Minnesota

CITY           SKY/WX    TMP DP  RH WIND       PRES   REMARKS
ST CLOUD       FAIR      93  47  20 NW10      29.69S
SAUK CENTRE    FAIR      92  47  21 NW10      29.71S
PAYNESVILLE    FAIR      90  51  26 W10       29.72S
AITKIN         FAIR      86  52  30 W7        29.68S
PINE RIVER     FAIR      84  52  32 NW9G16    29.73S
BRAINERD       FAIR      91  48  22 W10G23    29.70S
STAPLES        FAIR      90  45  20 NW15      29.71S
LONG PRAIRIE   FAIR      90  46  22 W8        29.71F
LITTLE FALLS   FAIR      90  50  25 W10G21    29.70F
LITCHFIELD     FAIR      93  52  24 NW6       29.70S HX  90
BUFFALO        FAIR      92  46  20 W10       29.70F
MAPLE LAKE     FAIR      92  53  26 W8        29.70F HX  90
HUTCHINSON     FAIR      92  56  29 SW3       29.71F HX  90
$$
MNZ037-044-045-052-053-270000-
   East Central Minnesota

CITY           SKY/WX    TMP DP  RH WIND       PRES   REMARKS
PRINCETON      FAIR      93  46  20 W12       29.69S
MORA           FAIR      88  46  23 NW8       29.70S
CAMBRIDGE      FAIR      95  64  36 NW10G20   29.68S HX  97
RUSH CITY      FAIR      90  48  23 NW8       29.68S
MOOSE LAKE     FAIR      88  52  29 W6G17     29.67R
HINCKLEY       FAIR      90  50  25 W6        29.68S
CLOQUET        FAIR      88  43  20 W10G18    29.68R
MCGREGOR       FAIR      88  46  23 NW12G22   29.69S
$$
MNZ071>073-080-081-089-090-097-098-270000-
   Southwest Minnesota

CITY           SKY/WX    TMP DP  RH WIND       PRES   REMARKS
MONTEVIDEO     SUNNY     95  46  18 N8        29.72R HX  91
CANBY          SUNNY     91  53  27 W8        29.74S
MARSHALL       SUNNY     91  53  27 NW10      29.73S
REDWOOD FALLS  SUNNY     93  53  25 NW5       29.70S HX  90
OLIVIA         SUNNY     91  52  25 W13       29.70S
PIPESTONE      SUNNY     91  52  25 NW8       29.77S
WINDOM         SUNNY     90  55  31 NW8       29.73F
WORTHINGTON    SUNNY     91  53  27 NW10G20   29.76S
JACKSON        SUNNY     90  48  24 N8        29.75S
TRACY          SUNNY     93  49  22 NW8       29.74S HX  90
SLAYTON        SUNNY     91  45  19 NW14G21   29.77S
$$
MNZ065>067-074>077-082>085-091>093-270000-
   South Central Minnesota

CITY           SKY/WX    TMP DP  RH WIND       PRES   REMARKS
MANKATO        FAIR      93  54  26 N13       29.71S HX  91
NEW ULM        SUNNY     91  46  21 NW10      29.71S
ST JAMES       SUNNY     93  46  20 NW3       29.72F
FAIRMONT       SUNNY     92  50  23 NW15G21   29.73S
GLENCOE        FAIR      92  52  25 CALM      29.70S HX  90
FARIBAULT      FAIR      91  55  29 CALM      29.72S
OWATONNA       FAIR      90  57  33 NE6       29.72S
WASECA         FAIR      91  46  21 W9        29.72F
ALBERT LEA     FAIR      91  45  19 CALM      29.72F
$$
MNZ078>079-086>088-094>096-270000-
   Southeast Minnesota

CITY           SKY/WX    TMP DP  RH WIND       PRES   REMARKS
ROCHESTER      FAIR      88  57  34 CALM      29.73S
RED WING       FAIR      93  46  20 W6        29.68S
STANTON        FAIR      90  58  33 W7        29.69F
DODGE CENTER   FAIR      90  52  27 CALM      29.73F
WINONA         FAIR      91  59  33 W5        29.69F HX  90
AUSTIN         FAIR      90  52  27 CALM      29.72F
PRESTON        FAIR      89  59  37 CALM      29.74F
$$
ABBREVIATIONS USED IN REMARKS
   TC - TEMPERATURES IN CELSIUS
  WCI - WIND CHILL INDEX
   HX - HEAT INDEX
  VSB - VISIBILITY
$$




USA.gov is the U.S. government's official web portal to all federal, state and local government web resources and services.